TimePST,TemperatureF,Dew PointF,Humidity,Sea Level PressureIn,VisibilityMPH,Wind Direction,Wind SpeedMPH,Gust SpeedMPH,PrecipitationIn,Events,Conditions,WindDirDegrees,DateUTC
12:15 AM,30.2,21.2,69,30.30,10.0,Calm,Calm,-,N/A,,Clear,0,2013-12-09 08:15:00
12:35 AM,28.4,21.2,74,30.30,10.0,Calm,Calm,-,N/A,,Clear,0,2013-12-09 08:35:00
12:55 AM,28.4,21.2,74,30.31,9.0,Calm,Calm,-,N/A,,Clear,0,2013-12-09 08:55:00
1:15 AM,28.4,21.2,74,30.31,9.0,Calm,Calm,-,N/A,,Clear,0,2013-12-09 09:15:00
1:35 AM,28.4,21.2,74,30.31,10.0,NNW,4.6,-,N/A,,Clear,330,2013-12-09 09:35:00
1:55 AM,28.4,21.2,74,30.31,10.0,Calm,Calm,-,N/A,,Clear,0,2013-12-09 09:55:00
2:15 AM,28.4,21.2,74,30.31,10.0,Calm,Calm,-,N/A,,Clear,0,2013-12-09 10:15:00
2:35 AM,26.6,19.4,74,30.31,8.0,Calm,Calm,-,N/A,,Clear,0,2013-12-09 10:35:00
2:55 AM,26.6,19.4,74,30.31,9.0,Calm,Calm,-,N/A,,Clear,0,2013-12-09 10:55:00
3:15 AM,26.6,21.2,80,30.31,10.0,Calm,Calm,-,N/A,,Clear,0,2013-12-09 11:15:00
3:35 AM,26.6,19.4,74,30.31,10.0,NNW,3.5,-,N/A,,Clear,330,2013-12-09 11:35:00
3:55 AM,26.6,19.4,74,30.31,9.0,NW,3.5,-,N/A,,Clear,320,2013-12-09 11:55:00
4:15 AM,24.8,19.4,80,30.31,8.0,Calm,Calm,-,N/A,,Clear,0,2013-12-09 12:15:00
4:35 AM,26.6,19.4,74,30.31,8.0,NW,3.5,-,N/A,,Clear,310,2013-12-09 12:35:00
4:55 AM,24.8,17.6,74,30.32,9.0,NW,3.5,-,N/A,,Clear,310,2013-12-09 12:55:00
5:15 AM,26.6,19.4,74,30.32,10.0,Calm,Calm,-,N/A,,Clear,0,2013-12-09 13:15:00
5:35 AM,24.8,17.6,74,30.33,8.0,Calm,Calm,-,N/A,,Clear,0,2013-12-09 13:35:00
5:55 AM,24.8,17.6,74,30.34,7.0,Calm,Calm,-,N/A,,Clear,0,2013-12-09 13:55:00
6:15 AM,24.8,17.6,74,30.34,6.0,East,3.5,-,N/A,,Clear,90,2013-12-09 14:15:00
6:35 AM,24.8,17.6,74,30.35,6.0,Calm,Calm,-,N/A,,Clear,0,2013-12-09 14:35:00
6:55 AM,24.8,17.6,74,30.35,6.0,Calm,Calm,-,N/A,,Clear,0,2013-12-09 14:55:00
7:15 AM,24.8,17.6,74,30.36,5.0,Calm,Calm,-,N/A,,Clear,0,2013-12-09 15:15:00
7:35 AM,24.8,17.6,74,30.37,5.0,East,3.5,-,N/A,,Clear,90,2013-12-09 15:35:00
7:55 AM,26.6,21.2,80,30.38,5.0,East,3.5,-,N/A,,Clear,100,2013-12-09 15:55:00
8:15 AM,28.4,23.0,80,30.39,7.0,SE,5.8,-,N/A,,Clear,130,2013-12-09 16:15:00
8:35 AM,28.4,23.0,80,30.40,7.0,SE,6.9,-,N/A,,Clear,140,2013-12-09 16:35:00
8:55 AM,28.4,24.8,86,30.40,7.0,SSE,4.6,-,N/A,,Clear,150,2013-12-09 16:55:00
9:15 AM,30.2,24.8,80,30.41,7.0,SSE,4.6,-,N/A,,Clear,160,2013-12-09 17:15:00
9:35 AM,32.0,26.6,80,30.42,8.0,ESE,3.5,-,N/A,,Clear,120,2013-12-09 17:35:00
9:55 AM,33.8,26.6,75,30.42,8.0,South,4.6,-,N/A,,Clear,170,2013-12-09 17:55:00
10:15 AM,33.8,26.6,75,30.43,8.0,Calm,Calm,-,N/A,,Clear,0,2013-12-09 18:15:00
10:35 AM,35.6,28.4,75,30.42,9.0,Calm,Calm,-,N/A,,Clear,0,2013-12-09 18:35:00
10:55 AM,35.6,28.4,75,30.42,9.0,Calm,Calm,-,N/A,,Clear,0,2013-12-09 18:55:00
11:15 AM,37.4,28.4,70,30.41,8.0,Calm,Calm,-,N/A,,Clear,0,2013-12-09 19:15:00
11:35 AM,37.4,28.4,70,30.40,10.0,South,3.5,-,N/A,,Clear,180,2013-12-09 19:35:00
11:55 AM,39.2,28.4,65,30.40,10.0,Calm,Calm,-,N/A,,Clear,0,2013-12-09 19:55:00
12:15 PM,41.0,30.2,65,30.40,10.0,Calm,Calm,-,N/A,,Clear,0,2013-12-09 20:15:00
12:35 PM,42.8,30.2,61,30.39,10.0,WSW,3.5,-,N/A,,Clear,240,2013-12-09 20:35:00
12:55 PM,42.8,30.2,61,30.39,10.0,Calm,Calm,-,N/A,,Clear,0,2013-12-09 20:55:00
1:15 PM,42.8,28.4,57,30.38,10.0,WSW,3.5,-,N/A,,Clear,250,2013-12-09 21:15:00
1:35 PM,44.6,28.4,53,30.39,10.0,Calm,Calm,-,N/A,,Clear,0,2013-12-09 21:35:00
1:55 PM,44.6,28.4,53,30.39,10.0,Calm,Calm,-,N/A,,Clear,0,2013-12-09 21:55:00
2:15 PM,46.4,30.2,53,30.39,10.0,West,3.5,-,N/A,,Clear,280,2013-12-09 22:15:00
2:35 PM,48.2,30.2,50,30.39,10.0,Calm,Calm,-,N/A,,Clear,0,2013-12-09 22:35:00
2:55 PM,46.4,26.6,46,30.38,10.0,Calm,Calm,-,N/A,,Clear,0,2013-12-09 22:55:00
3:15 PM,48.2,28.4,46,30.38,10.0,NW,4.6,-,N/A,,Clear,320,2013-12-09 23:15:00
3:35 PM,46.4,26.6,46,30.38,10.0,Calm,Calm,-,N/A,,Clear,0,2013-12-09 23:35:00
3:55 PM,46.4,26.6,46,30.39,10.0,NNW,4.6,-,N/A,,Clear,330,2013-12-09 23:55:00
4:15 PM,46.4,24.8,43,30.39,10.0,North,3.5,-,N/A,,Clear,360,2013-12-10 00:15:00
4:35 PM,44.6,24.8,46,30.39,10.0,Calm,Calm,-,N/A,,Clear,0,2013-12-10 00:35:00
4:55 PM,44.6,24.8,46,30.39,10.0,Calm,Calm,-,N/A,,Clear,0,2013-12-10 00:55:00
5:15 PM,41.0,23.0,49,30.39,10.0,Calm,Calm,-,N/A,,Clear,0,2013-12-10 01:15:00
5:35 PM,41.0,24.8,53,30.40,10.0,Calm,Calm,-,N/A,,Clear,0,2013-12-10 01:35:00
5:55 PM,37.4,23.0,56,30.40,10.0,Calm,Calm,-,N/A,,Clear,0,2013-12-10 01:55:00
6:15 PM,37.4,24.8,60,30.40,10.0,Calm,Calm,-,N/A,,Clear,0,2013-12-10 02:15:00
6:35 PM,37.4,24.8,60,30.40,10.0,Calm,Calm,-,N/A,,Clear,0,2013-12-10 02:35:00
6:55 PM,35.6,23.0,60,30.41,10.0,Calm,Calm,-,N/A,,Clear,0,2013-12-10 02:55:00
7:15 PM,35.6,23.0,60,30.41,10.0,Calm,Calm,-,N/A,,Clear,0,2013-12-10 03:15:00
7:35 PM,33.8,21.2,60,30.41,10.0,Calm,Calm,-,N/A,,Clear,0,2013-12-10 03:35:00
7:55 PM,33.8,23.0,65,30.41,10.0,Calm,Calm,-,N/A,,Clear,0,2013-12-10 03:55:00
8:15 PM,32.0,23.0,69,30.41,10.0,Calm,Calm,-,N/A,,Clear,0,2013-12-10 04:15:00
8:35 PM,33.8,23.0,65,30.42,10.0,NE,4.6,-,N/A,,Clear,40,2013-12-10 04:35:00
8:55 PM,33.8,21.2,60,30.41,10.0,NE,4.6,-,N/A,,Clear,50,2013-12-10 04:55:00
9:15 PM,33.8,26.6,75,30.41,10.0,East,3.5,-,N/A,,Clear,80,2013-12-10 05:15:00
9:35 PM,33.8,21.2,60,30.42,9.0,Calm,Calm,-,N/A,,Clear,0,2013-12-10 05:35:00
9:55 PM,33.8,24.8,70,30.42,8.0,East,3.5,-,N/A,,Clear,80,2013-12-10 05:55:00
10:15 PM,30.2,21.2,69,30.43,8.0,Calm,Calm,-,N/A,,Clear,0,2013-12-10 06:15:00
10:35 PM,32.0,24.8,75,30.43,8.0,Calm,Calm,-,N/A,,Clear,0,2013-12-10 06:35:00
10:55 PM,30.2,21.2,69,30.43,8.0,Calm,Calm,-,N/A,,Clear,0,2013-12-10 06:55:00
11:15 PM,30.2,21.2,69,30.43,7.0,Calm,Calm,-,N/A,,Clear,0,2013-12-10 07:15:00
11:35 PM,30.2,21.2,69,30.43,7.0,Calm,Calm,-,N/A,,Clear,0,2013-12-10 07:35:00
11:55 PM,30.2,21.2,69,30.43,6.0,Calm,Calm,-,N/A,,Clear,0,2013-12-10 07:55:00